Montgomery, NY

1:50 PM EDT on September 24, 2017 (GMT -0400)
Orange County

Weather History for KMGJ - April, 2013

Change the Weather History Date:

Saturday, April 13, 2013

  Actual Average (KSWF) Record (KSWF)
Temperature  
Mean Temperature 46 °F -  
Max Temperature 59 °F 57 °F 87 °F (1977)
Min Temperature 35 °F 36 °F 22 °F (1990)
Degree Days  
Heating Degree Days 19    
Moisture  
Dew Point 34 °F    
Average Humidity 71    
Maximum Humidity 93    
Minimum Humidity 39    
Precipitation  
Precipitation 0.00 in - - ()
Sea Level Pressure  
Sea Level Pressure 29.85 in    
Wind  
Wind Speed 5 mph (WNW)    
Max Wind Speed 13 mph    
Max Gust Speed 20 mph    
Visibility 10 miles    
Events Rain    
Averages and records for this station are not official NWS values.
T = Trace of Precipitation, MM = Missing Value Source: NWS Daily Summary

Daily Weather History Graph

Daily Weather History Graph

Search for Another Location

Airport or City:

Trip Planner

Search our weather history database for the weather conditions in past years. The results will help you decide how hot, cold, wet, or windy it might be!

Date:

Astronomy

Apr. 13, 2013 Rise Set
Actual Time 6:20 AM EDT 7:35 PM EDT
Civil Twilight 5:51 AM EDT 8:04 PM EDT
Nautical Twilight 5:17 AM EDT 8:38 PM EDT
Astronomical Twilight 4:41 AM EDT 9:14 PM EDT
Moon 8:07 AM EDT (4/13) 10:59 PM EDT (4/13)
Length of Visible Light 14h 12m
Length of Day
13h 15m
Waxing Crescent, 10% of the Moon is Illuminated
Apr 13
Waxing Crescent
Apr 18
First Quarter
Apr 25
Full
May 2
Last Quarter
May 9
New

Hourly Weather History & Observations

Time (EDT) Temp. Windchill Dew Point Humidity Pressure Visibility Wind Dir Wind Speed Gust Speed Precip Events Conditions
12:21 AM 39.2 °F 35.9 °F 35.6 °F 87% 29.78 in 10.0 mi East 4.6 mph - 0.00 in   Overcast
12:34 AM 39.2 °F 34.2 °F 35.6 °F 87% 29.77 in 10.0 mi NE 6.9 mph - 0.00 in   Overcast
12:54 AM 39.9 °F 36.7 °F 37.0 °F 89% 29.79 in 10.0 mi North 4.6 mph - 0.00 in Rain Light Rain
1:54 AM 39.0 °F 32.3 °F 36.0 °F 89% 29.80 in 10.0 mi NNE 10.4 mph - 0.00 in   Overcast
2:42 AM 39.2 °F 34.2 °F 35.6 °F 87% 29.80 in 10.0 mi NNE 6.9 mph - N/A   Overcast
2:54 AM 39.0 °F 35.7 °F 36.0 °F 89% 29.81 in 10.0 mi NNE 4.6 mph - N/A   Overcast
3:54 AM 39.0 °F 34.8 °F 35.1 °F 86% 29.81 in 10.0 mi NE 5.8 mph - N/A   Overcast
4:54 AM 39.0 °F 35.7 °F 35.1 °F 86% 29.83 in 10.0 mi NNE 4.6 mph - N/A   Overcast
5:02 AM 39.2 °F 37.0 °F 35.6 °F 87% 29.82 in 10.0 mi NNE 3.5 mph - N/A   Overcast
5:25 AM 37.4 °F - 35.6 °F 93% 29.83 in 10.0 mi Calm Calm - N/A   Overcast
5:54 AM 37.9 °F - 35.1 °F 89% 29.84 in 10.0 mi Calm Calm - N/A   Overcast
6:16 AM 37.4 °F - 35.6 °F 93% 29.83 in 10.0 mi Calm Calm - N/A   Mostly Cloudy
6:29 AM 35.6 °F 32.8 °F 33.8 °F 93% 29.83 in 10.0 mi WNW 3.5 mph - N/A   Scattered Clouds
6:54 AM 36.0 °F - 34.0 °F 93% 29.85 in 9.0 mi Calm Calm - N/A   Mostly Cloudy
7:54 AM 39.9 °F - 35.1 °F 83% 29.86 in 10.0 mi Calm Calm - N/A   Overcast
8:54 AM 41.0 °F 39.0 °F 36.0 °F 82% 29.87 in 10.0 mi SSW 3.5 mph - N/A   Overcast
9:54 AM 45.0 °F 42.6 °F 37.9 °F 76% 29.88 in 10.0 mi SSW 4.6 mph - N/A   Overcast
10:54 AM 48.0 °F - 37.9 °F 68% 29.87 in 10.0 mi SW 11.5 mph - N/A   Overcast
11:54 AM 50.0 °F - 36.0 °F 59% 29.87 in 10.0 mi Calm Calm - N/A   Overcast
12:54 PM 53.1 °F - 32.0 °F 45% 29.85 in 10.0 mi WSW 8.1 mph - N/A   Overcast
1:54 PM 53.1 °F - 32.0 °F 45% 29.85 in 10.0 mi NNW 4.6 mph - N/A   Overcast
2:54 PM 57.0 °F - 33.1 °F 40% 29.82 in 10.0 mi WSW 11.5 mph - N/A   Overcast
3:54 PM 55.9 °F - 30.9 °F 39% 29.83 in 10.0 mi West 8.1 mph - N/A   Overcast
4:54 PM 55.9 °F - 30.9 °F 39% 29.83 in 10.0 mi WNW 12.7 mph 19.6 mph N/A   Overcast
5:54 PM 55.9 °F - 32.0 °F 40% 29.83 in 10.0 mi WSW 10.4 mph - N/A   Partly Cloudy
6:54 PM 53.1 °F - 30.0 °F 41% 29.88 in 10.0 mi West 10.4 mph 17.3 mph N/A   Partly Cloudy
7:54 PM 51.1 °F - 30.9 °F 46% 29.91 in 10.0 mi West 6.9 mph - N/A   Overcast
8:54 PM 48.9 °F - 30.9 °F 50% 29.93 in 10.0 mi WNW 3.5 mph - N/A   Clear
9:54 PM 44.1 °F 42.5 °F 32.0 °F 63% 29.94 in 10.0 mi SSW 3.5 mph - N/A   Mostly Cloudy
10:54 PM 39.9 °F 37.8 °F 32.0 °F 73% 29.94 in 10.0 mi WSW 3.5 mph - N/A   Scattered Clouds
11:54 PM 39.0 °F - 30.9 °F 73% 29.94 in 10.0 mi Calm Calm - N/A   Mostly Cloudy